This is the latest recevied weather packets stored in our database for station/object KM4KMS. If no packets are shown the sender has not sent any weather packets the latest 1 day(s).
| Time | Temp. | Humidity | Pressure | Rain* | Wind** | Luminosity | Snow |
|---|---|---|---|---|---|---|---|
| 1836274611 | 18.33° C | 86% | 1019.7 hPa | 0 mm | 0.45 m/s, 36° | 0 W/m² | - |
| 1836274464 | 18.33° C | 87% | 1019.5 hPa | 0 mm | 0 m/s | 0 W/m² | - |
| 1836274309 | 18.33° C | 85% | 1019.4 hPa | 0 mm | 0 m/s | 0 W/m² | - |
| 1836274162 | 18.33° C | 86% | 1019.5 hPa | 0 mm | 0 m/s | 0 W/m² | - |
| 1836274008 | 18.33° C | 84% | 1019.3 hPa | 0 mm | 0 m/s | 0 W/m² | - |
| 1778056454 | 9.44° C | 99% | 1006.9 hPa | 0 mm | 1.34 m/s, 1° | 0 W/m² | - |
| 1778056151 | 9.44° C | 99% | 1006.9 hPa | 0 mm | 2.24 m/s, 354° | 0 W/m² | - |
| 1778055848 | 10° C | 99% | 1006.9 hPa | 0 mm | 2.24 m/s, 10° | 0 W/m² | - |
| 1778055543 | 10° C | 99% | 1006.8 hPa | 0 mm | 2.24 m/s, 341° | 0 W/m² | - |
| 1778055242 | 10° C | 99% | 1006.7 hPa | 0 mm | 4.02 m/s, 348° | 0 W/m² | - |
| 1778054939 | 10° C | 99% | 1006.4 hPa | 0 mm | 1.34 m/s, 336° | 0 W/m² | - |
| 1778054635 | 10° C | 99% | 1006.5 hPa | 1.78 mm | 2.24 m/s, 352° | 0 W/m² | - |
| 1778054333 | 10° C | 99% | 1006 hPa | 1.78 mm | 3.13 m/s, 346° | 0 W/m² | - |
| 1778054030 | 10° C | 99% | 1006 hPa | 0 mm | 4.92 m/s, 349° | 0 W/m² | - |
| 1778053727 | 10.56° C | 99% | 1006 hPa | 0 mm | 3.13 m/s, 348° | 0 W/m² | - |
| 1778053424 | 10.56° C | 99% | 1006.3 hPa | 1.78 mm | 3.13 m/s, 341° | 0 W/m² | - |
| 1778053122 | 10.56° C | 99% | 1006.1 hPa | 0 mm | 3.58 m/s, 343° | 0 W/m² | - |
| 1778052819 | 10.56° C | 99% | 1005.7 hPa | 1.27 mm | 3.58 m/s, 342° | 0 W/m² | - |
| 1778052516 | 10.56° C | 99% | 1005.5 hPa | 3.05 mm | 4.02 m/s, 340° | 0 W/m² | - |
| 1778052214 | 10.56° C | 99% | 1005.5 hPa | 4.83 mm | 2.68 m/s, 339° | 0 W/m² | - |
| 1778051911 | 10.56° C | 99% | 1005.4 hPa | 4.83 mm | 4.47 m/s, 348° | 0 W/m² | - |
| 1778051610 | 10.56° C | 99% | 1005.8 hPa | 4.32 mm | 2.24 m/s, 352° | 0 W/m² | - |
| 1778051306 | 10.56° C | 99% | 1006 hPa | 4.32 mm | 3.13 m/s, 344° | 0 W/m² | - |
| 1778051003 | 11.11° C | 99% | 1005.7 hPa | 6.1 mm | 4.92 m/s, 345° | 0 W/m² | - |
| 1778050700 | 11.11° C | 99% | 1005.6 hPa | 7.87 mm | 5.36 m/s, 335° | 0 W/m² | - |
* Rain latest hour (hover to see other rain measurements)
** Current wind speed in m/s (hover to see current wind gust speed)